Content
SEND FEEDBACK

Daily
Averages
Monthly
Summary
United Kingdom

TYNEMOUTH, ENGLAND


Home > Europe > United Kingdom > England
Elevation: 108 feet     Latitude: 55 01N     Longitude: 001 25W

WEATHER
 
SELECT A DAY
Number of Records: 285,319;   Date Range: 7/1/96 - 7/29/14
 
SHARE

PRINT THIS DATA

[ ← Previous Day ]
WEATHER ALMANAC - NOVEMBER 29, 2013
[ Next Day → ]
[ °C ]   °F
Weather ElementAverageHighLow
Temperature43.5 °F48.2 °F (2:20 am)39.2 °F (5:20 pm)
Dewpoint38 °F46.4 °F (2:50 am)33.8 °F (6:50 pm)
Humidity81 %93 % (12:50 am)70 % (10:50 pm)
Barometer30.11 in30.33 in (12:50 am)30.06 in (6:20 am)
Wind Speed18.4 mph28.8 mph (7:20 am)
Wind Gust41.4 mph (7:20 am)
Weather ElementAverage
Visibility6.2 mi
Wind DirectionWNW (276.2 °)

Weather ElementTotal
Precipitation---
Heating Degree Days21.3 (Base 65)
Averaged from 45 records on November 29, 2013
WEATHER CONDITIONS BREAKOUT
WIND DIRECTION BREAKOUT
WEATHER BY HOUR - NOVEMBER 29, 2013
[ °C ]   °F
Local TimeTemperatureDewpointHumidityBarometerVisibilityWind DirectionWind SpeedGust SpeedPrecipitationEventsConditions
12:50 AM42.8 °F41.0 °F93 %30.33 in6.2 miWSW (250°)8.1 mphPartly Cloudy
1:20 AM44.6 °F42.8 °F93 %30.30 in6.2 miWest (260°)6.9 mphPartly Cloudy
1:50 AM46.4 °F44.6 °F93 %30.27 in6.2 miWSW (250°)12.7 mphMostly Cloudy
2:20 AM48.2 °F44.6 °F87 %30.27 in6.2 miWest (260°)15.0 mphMostly Cloudy
2:50 AM48.2 °F46.4 °F93 %30.24 in6.2 miWest (260°)15.0 mphMostly Cloudy
3:50 AM48.2 °F46.4 °F93 %30.18 in6.2 miWest (260°)19.6 mph33.4 mphMostly Cloudy
4:50 AM46.4 °F42.8 °F87 %30.12 in6.2 miWest (260°)21.9 mphPartly Cloudy
5:20 AM46.4 °F42.8 °F87 %30.12 in6.2 miWest (260°)24.2 mphScattered Clouds
5:50 AM46.4 °F42.8 °F87 %30.09 in6.2 miWest (270°)27.6 mph40.3 mphScattered Clouds
6:20 AM46.4 °F42.8 °F87 %30.06 in6.2 miWest (260°)25.3 mphScattered Clouds
6:50 AM48.2 °F42.8 °F82 %30.06 in6.2 miWest (260°)26.5 mph38.0 mphScattered Clouds
7:20 AM46.4 °F42.8 °F87 %30.06 in6.2 miWest (260°)28.8 mph41.4 mphScattered Clouds
7:50 AM46.4 °F42.8 °F87 %30.09 in6.2 miWest (270°)19.6 mphPartly Cloudy
8:20 AM46.4 °F41.0 °F81 %30.09 in6.2 miWNW (290°)18.4 mphScattered Clouds
8:50 AM44.6 °F39.2 °F81 %30.09 in6.2 miWNW (290°)18.4 mphPartly Cloudy
9:20 AM44.6 °F37.4 °F76 %30.09 in6.2 miWest (280°)19.6 mphPartly Cloudy
9:50 AM44.6 °F37.4 °F76 %30.09 in6.2 miWest (280°)18.4 mphPartly Cloudy
10:20 AM44.6 °F35.6 °F71 %30.12 in6.2 miWNW (290°)19.6 mph32.2 mphPartly Cloudy
10:50 AM44.6 °F35.6 °F71 %30.12 in6.2 miWNW (290°)20.7 mphPartly Cloudy
11:20 AM44.6 °F35.6 °F71 %30.09 in6.2 miWest (280°)23.0 mphPartly Cloudy
11:50 AM42.8 °F35.6 °F76 %30.09 inWest (280°)20.7 mphClear
12:20 PM44.6 °F35.6 °F71 %30.06 inWNW (290°)18.4 mphClear
12:50 PM42.8 °F35.6 °F76 %30.06 inWest (280°)19.6 mphClear
1:20 PM42.8 °F35.6 °F76 %30.06 inWest (280°)20.7 mphClear
1:50 PM44.6 °F37.4 °F76 %30.06 in6.2 miWest (280°)20.7 mphPartly Cloudy
2:20 PM42.8 °F37.4 °F81 %30.06 in6.2 miWest (270°)21.9 mphPartly Cloudy
2:50 PM42.8 °F37.4 °F81 %30.06 in6.2 miWest (280°)16.1 mphPartly Cloudy
3:20 PM41.0 °F35.6 °F81 %30.06 in6.2 miWest (270°)17.3 mphPartly Cloudy
3:50 PM41.0 °F37.4 °F87 %30.06 in6.2 miWest (270°)17.3 mphPartly Cloudy
4:20 PM41.0 °F37.4 °F87 %30.06 in6.2 miWest (270°)17.3 mphPartly Cloudy
4:50 PM41.0 °F35.6 °F81 %30.06 in6.2 miWest (270°)17.3 mphPartly Cloudy
5:20 PM39.2 °F35.6 °F87 %30.06 in6.2 miWest (270°)15.0 mphPartly Cloudy
5:50 PM39.2 °F35.6 °F87 %30.06 in6.2 miWest (270°)15.0 mphPartly Cloudy
6:20 PM39.2 °F35.6 °F87 %30.06 in6.2 miWest (270°)16.1 mphPartly Cloudy
6:50 PM39.2 °F33.8 °F81 %30.06 inWest (280°)16.1 mphClear
7:20 PM41.0 °F35.6 °F81 %30.09 inWest (280°)17.3 mphClear
7:50 PM41.0 °F33.8 °F76 %30.09 inWNW (290°)17.3 mphClear
8:20 PM41.0 °F33.8 °F76 %30.09 in6.2 miWNW (290°)17.3 mphPartly Cloudy
8:50 PM41.0 °F33.8 °F76 %30.12 inWest (280°)17.3 mphClear
9:20 PM41.0 °F33.8 °F76 %30.12 inWNW (290°)17.3 mphClear
9:50 PM41.0 °F33.8 °F76 %30.15 inWest (280°)12.7 mphClear
10:20 PM41.0 °F33.8 °F76 %30.15 in6.2 miWNW (300°)13.8 mphPartly Cloudy
10:50 PM42.8 °F33.8 °F70 %30.15 in6.2 miWNW (300°)20.7 mphMostly Cloudy
11:20 PM42.8 °F33.8 °F70 %30.18 in6.2 miWNW (300°)16.1 mphMostly Cloudy
11:50 PM42.8 °F33.8 °F70 %30.18 in6.2 miNW (310°)20.7 mphMostly Cloudy
Hourly data recorded from EGNT, located miles away from Tynemouth, England







STORIES FROM OUR PARTNERS